Find Starlink 11417

NORAD ID: 62983 Int'l Des: 2025-031 Owner: SPXS Country: US Constellation: starlink operational
LEOCIRCULAR

Live-Position

3D-Globus wird geladen...

Über Starlink 11417

Beschreibung wird geladen...

Nächste Überflüge

Passes for default location (London). Set your location on the main map for personalized predictions.

Höhenverlauf

Loading altitude history...

Zweizeiliger Elementsatz

1 62983U 25031C 26125.12452606 .00133427 00000-0 10250-2 0 9991
2 62983 43.0020 21.6918 0002541 255.6656 104.3930 15.70878051 71610
Epoch: 5. Mai 2026 • Age: 30 hours

Aktueller Status

Höhe 356.5 km
Geschwindigkeit 7.70 km/s
Subsatellitenpunkt -10.27°S, 150.96°W
Startdatum 11. Feb. 2025
Alter 1.2 years
Typ internet

Technische Details

Klassifizierung Payload
Masse 960.00 kg
Trockenmasse 910.00 kg
Gesamtmasse 960.00 kg
Länge 0.30 m
Durchmesser 4.10 m
Spannweite 29.00 m
Form Box + pan
Hersteller SPXS
Bus-Typ Starlink V2MD
Phasenstatus In Orbit
Besitzer/Staat SPXS/US

Most Searched